Simultaneous Nadir Overpasses (SNOs) Predictions

Prediction of SNOs between AQUA and METOP-B Satellite Orbit:

Table of predicted SNOs for the next 14.0 days since TLE Epoch: 5/24/2019
Index Date (AQUA) Time (AQUA) Lat,Lon (AQUA) SZA (AQUA ) Date (METOP-B) Time (METOP-B) Lat,Lon (METOP-B) SZA (METOP-B ) Distance(km) Time Diff (sec)
1 05/25/2019 16:57:28 -73.85, 99.89 127.16 05/25/2019 16:56:54 -73.83, 99.84 127.17 2.28 34
2 05/25/2019 17:46:57 73.90, -92.60 52.89 05/25/2019 17:47:32 73.90, -92.66 52.89 1.87 35
3 05/28/2019 12:31:43 -73.85, 166.31 127.63 05/28/2019 12:31:17 -73.83, 166.25 127.64 3.02 26
4 05/28/2019 13:21:12 73.91, -26.19 52.43 05/28/2019 13:21:55 73.90, -26.26 52.42 2.72 43
5 05/31/2019 08:05:58 -73.87,-127.28 128.04 05/31/2019 08:05:39 -73.88,-127.23 128.02 2.38 19
6 05/31/2019 08:55:26 73.94, 40.20 52.03 05/31/2019 08:56:16 73.94, 40.26 52.03 2.08 50
7 06/03/2019 02:50:38 73.44, 132.42 51.15 06/03/2019 02:49:29 73.36, 130.65 51.13 57.21 69
8 06/03/2019 03:40:12 -73.88, -60.88 128.39 06/03/2019 03:40:01 -73.88, -60.83 128.40 1.87 11
9 06/03/2019 04:29:40 73.91, 106.69 51.63 06/03/2019 04:30:39 73.94, 106.66 51.66 3.46 59
10 06/05/2019 22:24:58 73.74,-161.77 51.14 06/05/2019 22:23:45 73.71,-162.16 51.13 12.57 73
11 06/05/2019 23:14:26 -73.86, 5.61 128.75 06/05/2019 23:14:24 -73.88, 5.57 128.72 2.42 2




NCC Satellite Simultaneous Nadir Overpasses (SNOs) Prediction Service
